| time (UTC) | temp C | wind direction | speed KPH | gust KPH | rain 1hr cm | rain 24hr cm | rain mn cm | humidity % | barometer mb |
| 20260504215040 | 12 | 106 | 3.2 | 9.7 | 0.00 | 0.00 | 0.00 | 83 | 1033.3 |
| 20260504214554 | 12 | 71 | 3.2 | 9.7 | 0.00 | 0.00 | 0.00 | 83 | 1033.2 |
| 20260504214039 | 12 | 62 | 1.6 | 8.0 | 0.00 | 0.00 | 0.00 | 83 | 1033.2 |
| 20260504213539 | 12 | 36 | 4.8 | 12.9 | 0.00 | 0.00 | 0.00 | 82 | 1033.3 |
| 20260504213044 | 12 | 86 | 3.2 | 12.9 | 0.00 | 0.00 | 0.00 | 82 | 1033.3 |
| 20260504212540 | 12 | 76 | 1.6 | 4.8 | 0.00 | 0.00 | 0.00 | 83 | 1033.3 |
| 20260504212043 | 12 | 71 | 0.0 | 1.6 | 0.00 | 0.00 | 0.00 | 83 | 1033.4 |
| 20260504211546 | 12 | 0 | 0.0 | 4.8 | 0.00 | 0.00 | 0.00 | 84 | 1033.3 |
| 20260504211041 | 12 | 0 | 0.0 | 4.8 | 0.00 | 0.00 | 0.00 | 83 | 1033.4 |
| 20260504210540 | 12 | 0 | 0.0 | 3.2 | 0.00 | 0.00 | 0.00 | 84 | 1033.5 |
| 20260504210055 | 12 | 0 | 0.0 | 3.2 | 0.00 | 0.00 | 0.00 | 84 | 1033.4 |
| 20260504205540 | 12 | 87 | 0.0 | 1.6 | 0.00 | 0.00 | 0.00 | 84 | 1033.5 |
| 20260504205040 | 12 | 0 | 0.0 | 1.6 | 0.00 | 0.00 | 0.00 | 85 | 1033.6 |
| 20260504204607 | 11 | 0 | 0.0 | 1.6 | 0.00 | 0.00 | 0.00 | 85 | 1033.5 |
| 20260504204039 | 11 | 0 | 0.0 | 1.6 | 0.00 | 0.00 | 0.00 | 85 | 1033.6 |
| 20260504203540 | 11 | 0 | 0.0 | 1.6 | 0.00 | 0.00 | 0.00 | 85 | 1033.6 |
| 20260504203115 | 11 | 0 | 0.0 | 1.6 | 0.00 | 0.00 | 0.00 | 85 | 1033.5 |
| 20260504202540 | 11 | 87 | 0.0 | 3.2 | 0.00 | 0.00 | 0.00 | 85 | 1033.5 |
| 20260504202040 | 11 | 0 | 0.0 | 3.2 | 0.00 | 0.00 | 0.00 | 85 | 1033.5 |
| 20260504201549 | 11 | 229 | 0.0 | 4.8 | 0.00 | 0.00 | 0.00 | 84 | 1033.6 |
| 20260504201040 | 11 | 0 | 0.0 | 4.8 | 0.00 | 0.00 | 0.00 | 84 | 1033.6 |
| 20260504200540 | 11 | 232 | 0.0 | 4.8 | 0.00 | 0.00 | 0.00 | 84 | 1033.5 |
| 20260504200053 | 11 | 0 | 0.0 | 4.8 | 0.00 | 0.00 | 0.00 | 84 | 1033.4 |
| 20260504195540 | 11 | 232 | 3.2 | 4.8 | 0.00 | 0.00 | 0.00 | 83 | 1033.5 |
| 20260504195041 | 11 | 231 | 0.0 | 1.6 | 0.00 | 0.00 | 0.00 | 83 | 1033.4 |
| 20260504194544 | 11 | 0 | 0.0 | 1.6 | 0.00 | 0.00 | 0.00 | 83 | 1033.3 |
| 20260504194040 | 11 | 231 | 0.0 | 1.6 | 0.00 | 0.00 | 0.00 | 83 | 1033.4 |
| 20260504193540 | 11 | 231 | 0.0 | 1.6 | 0.00 | 0.00 | 0.00 | 83 | 1033.4 |
| 20260504193051 | 11 | 231 | 0.0 | 1.6 | 0.00 | 0.00 | 0.00 | 83 | 1033.2 |
| 20260504192538 | 11 | 231 | 1.6 | 1.6 | 0.00 | 0.00 | 0.00 | 83 | 1033.3 |
| 20260504192039 | 11 | 232 | 0.0 | 1.6 | 0.00 | 0.00 | 0.00 | 83 | 1033.3 |
| 20260504191552 | 11 | 232 | 0.0 | 1.6 | 0.00 | 0.00 | 0.00 | 84 | 1033.3 |
| 20260504191106 | 11 | 232 | 0.0 | 1.6 | 0.00 | 0.00 | 0.00 | 83 | 1033.3 |
| 20260504190539 | 11 | 0 | 0.0 | 1.6 | 0.00 | 0.00 | 0.00 | 83 | 1033.3 |
| 20260504190052 | 11 | 0 | 0.0 | 0.0 | 0.00 | 0.00 | 0.00 | 83 | 1033.3 |
| 20260504185538 | 11 | 0 | 0.0 | 0.0 | 0.00 | 0.00 | 0.00 | 82 | 1033.2 |
| 20260504185040 | 11 | 0 | 0.0 | 0.0 | 0.00 | 0.00 | 0.00 | 81 | 1033.3 |
| 20260504184548 | 11 | 0 | 0.0 | 1.6 | 0.00 | 0.00 | 0.00 | 81 | 1033.3 |
| 20260504184038 | 11 | 234 | 0.0 | 1.6 | 0.00 | 0.00 | 0.00 | 80 | 1033.3 |
| 20260504183539 | 11 | 234 | 0.0 | 3.2 | 0.00 | 0.00 | 0.00 | 80 | 1033.3 |
| 20260504183045 | 11 | 234 | 1.6 | 3.2 | 0.00 | 0.00 | 0.00 | 80 | 1033.3 |
| 20260504182538 | 11 | 234 | 1.6 | 3.2 | 0.00 | 0.00 | 0.00 | 80 | 1033.3 |
| 20260504182038 | 11 | 234 | 1.6 | 4.8 | 0.00 | 0.00 | 0.00 | 80 | 1033.4 |
| 20260504181542 | 11 | 234 | 3.2 | 4.8 | 0.00 | 0.00 | 0.00 | 79 | 1033.4 |
| 20260504181038 | 11 | 234 | 1.6 | 4.8 | 0.00 | 0.00 | 0.00 | 79 | 1033.4 |
| 20260504180539 | 12 | 234 | 3.2 | 4.8 | 0.00 | 0.00 | 0.00 | 79 | 1033.5 |
| 20260504180053 | 12 | 253 | 1.6 | 4.8 | 0.00 | 0.00 | 0.00 | 79 | 1033.5 |
| 20260504175539 | 12 | 236 | 1.6 | 9.7 | 0.00 | 0.00 | 0.00 | 79 | 1033.5 |
| 20260504175039 | 11 | 236 | 3.2 | 9.7 | 0.00 | 0.00 | 0.00 | 79 | 1033.6 |
| 20260504174549 | 11 | 246 | 1.6 | 4.8 | 0.00 | 0.00 | 0.00 | 81 | 1033.5 |
| 20260504174039 | 11 | 247 | 1.6 | 4.8 | 0.00 | 0.00 | 0.00 | 82 | 1033.6 |
| 20260504173539 | 11 | 0 | 0.0 | 6.4 | 0.00 | 0.00 | 0.00 | 83 | 1033.6 |
| 20260504173107 | 11 | 286 | 1.6 | 6.4 | 0.00 | 0.00 | 0.00 | 83 | 1033.5 |
| 20260504172538 | 11 | 0 | 0.0 | 4.8 | 0.00 | 0.00 | 0.00 | 84 | 1033.4 |
| 20260504172038 | 11 | 270 | 0.0 | 4.8 | 0.00 | 0.00 | 0.00 | 84 | 1033.5 |
| 20260504171549 | 11 | 270 | 0.0 | 4.8 | 0.00 | 0.00 | 0.00 | 84 | 1033.7 |
| 20260504171039 | 11 | 277 | 0.0 | 6.4 | 0.00 | 0.00 | 0.00 | 83 | 1033.5 |
| 20260504170539 | 11 | 277 | 3.2 | 6.4 | 0.00 | 0.00 | 0.00 | 83 | 1033.5 |
| 20260504151039 | 12 | 0 | 0.0 | 3.2 | 0.00 | 0.00 | 0.00 | 83 | 1033.6 |
| 20260504150540 | 12 | 247 | 0.0 | 4.8 | 0.00 | 0.00 | 0.00 | 82 | 1033.7 |
| 20260504141039 | 12 | 247 | 0.0 | 4.8 | 0.00 | 0.00 | 0.00 | 82 | 1034.1 |
| 20260504140542 | 12 | 0 | 0.0 | 4.8 | 0.00 | 0.00 | 0.00 | 82 | 1034.1 |
| 20260504130538 | 11 | 0 | 0.0 | 3.2 | 0.00 | 0.00 | 0.00 | 84 | 1034.2 |
| 20260504130204 | 11 | 240 | 0.0 | 4.8 | 0.00 | 0.00 | 0.00 | 84 | 1034.2 |
| 20260504110538 | 12 | 0 | 0.0 | 1.6 | 0.00 | 0.00 | 0.00 | 86 | 1034.2 |
| 20260504100538 | 12 | 240 | 0.0 | 1.6 | 0.00 | 0.00 | 0.00 | 85 | 1034.3 |
| 20260504081551 | 12 | 0 | 0.0 | 1.6 | 0.00 | 0.00 | 0.00 | 83 | 1033.6 |
| 20260504081038 | 12 | 0 | 0.0 | 0.0 | 0.00 | 0.00 | 0.00 | 83 | 1033.6 |
| 20260504080542 | 12 | 0 | 0.0 | 1.6 | 0.00 | 0.00 | 0.00 | 83 | 1033.6 |
| 20260504050535 | 13 | 244 | 1.6 | 4.8 | 0.00 | 0.00 | 0.00 | 80 | 1032.8 |
| 20260504045534 | 13 | 240 | 1.6 | 6.4 | 0.00 | 0.00 | 0.00 | 79 | 1032.8 |
| 20260504045034 | 13 | 229 | 1.6 | 9.7 | 0.00 | 0.00 | 0.00 | 79 | 1032.8 |
| 20260504044547 | 13 | 241 | 3.2 | 9.7 | 0.00 | 0.00 | 0.00 | 79 | 1032.8 |
| 20260504044039 | 13 | 240 | 3.2 | 8.0 | 0.00 | 0.00 | 0.00 | 79 | 1032.9 |
| 20260504043539 | 13 | 261 | 3.2 | 8.0 | 0.00 | 0.00 | 0.00 | 79 | 1032.8 |
| 20260504043055 | 13 | 227 | 4.8 | 8.0 | 0.00 | 0.00 | 0.00 | 78 | 1032.8 |
| 20260504042540 | 13 | 224 | 4.8 | 8.0 | 0.00 | 0.00 | 0.00 | 79 | 1032.8 |
| 20260504042039 | 13 | 233 | 1.6 | 6.4 | 0.00 | 0.00 | 0.00 | 79 | 1032.8 |
| 20260504041546 | 13 | 233 | 3.2 | 8.0 | 0.00 | 0.00 | 0.00 | 78 | 1032.8 |
| 20260504041038 | 13 | 234 | 3.2 | 8.0 | 0.00 | 0.00 | 0.00 | 77 | 1032.6 |
| 20260504040535 | 13 | 239 | 4.8 | 9.7 | 0.00 | 0.00 | 0.00 | 77 | 1032.7 |
| 20260504040047 | 13 | 232 | 4.8 | 9.7 | 0.00 | 0.00 | 0.00 | 78 | 1032.7 |
| 20260504035538 | 13 | 238 | 4.8 | 9.7 | 0.00 | 0.00 | 0.00 | 78 | 1032.7 |
| 20260504035037 | 13 | 241 | 4.8 | 8.0 | 0.00 | 0.00 | 0.00 | 78 | 1032.7 |
| 20260504034555 | 14 | 242 | 4.8 | 6.4 | 0.00 | 0.00 | 0.00 | 77 | 1032.6 |
| 20260504034040 | 13 | 232 | 4.8 | 6.4 | 0.00 | 0.00 | 0.00 | 77 | 1032.8 |
| 20260504033538 | 14 | 238 | 4.8 | 12.9 | 0.00 | 0.00 | 0.00 | 77 | 1032.8 |
| 20260504033047 | 14 | 234 | 3.2 | 12.9 | 0.00 | 0.00 | 0.00 | 76 | 1032.8 |
| 20260504032539 | 14 | 227 | 4.8 | 12.9 | 0.00 | 0.00 | 0.00 | 76 | 1032.7 |
| 20260504032039 | 14 | 240 | 3.2 | 11.3 | 0.00 | 0.00 | 0.00 | 77 | 1032.8 |
| 20260504031548 | 14 | 249 | 4.8 | 11.3 | 0.00 | 0.00 | 0.00 | 76 | 1032.8 |
| 20260504031040 | 14 | 257 | 4.8 | 6.4 | 0.00 | 0.00 | 0.00 | 77 | 1032.8 |
| 20260504030538 | 14 | 232 | 3.2 | 11.3 | 0.00 | 0.00 | 0.00 | 76 | 1032.8 |
| 20260504030045 | 14 | 234 | 3.2 | 11.3 | 0.00 | 0.00 | 0.00 | 76 | 1032.8 |
| 20260504025538 | 14 | 246 | 4.8 | 9.7 | 0.00 | 0.00 | 0.00 | 76 | 1032.8 |
| 20260504025038 | 14 | 270 | 3.2 | 8.0 | 0.00 | 0.00 | 0.00 | 77 | 1032.9 |
| 20260504024547 | 14 | 238 | 3.2 | 6.4 | 0.00 | 0.00 | 0.00 | 76 | 1032.9 |
| 20260504024035 | 14 | 247 | 3.2 | 14.5 | 0.00 | 0.00 | 0.00 | 75 | 1032.9 |
| 20260504023535 | 14 | 235 | 4.8 | 14.5 | 0.00 | 0.00 | 0.00 | 75 | 1033.0 |
| 20260504023042 | 14 | 223 | 4.8 | 12.9 | 0.00 | 0.00 | 0.00 | 76 | 1032.9 |
| 20260504022535 | 14 | 254 | 6.4 | 11.3 | 0.00 | 0.00 | 0.00 | 75 | 1032.9 |
| 20260504022041 | 14 | 239 | 3.2 | 9.7 | 0.00 | 0.00 | 0.00 | 76 | 1033.0 |
| 20260504021553 | 14 | 277 | 3.2 | 11.3 | 0.00 | 0.00 | 0.00 | 75 | 1033.1 |
| 20260504021034 | 14 | 250 | 3.2 | 11.3 | 0.00 | 0.00 | 0.00 | 74 | 1033.0 |
| 20260504020537 | 14 | 241 | 3.2 | 11.3 | 0.00 | 0.00 | 0.00 | 74 | 1033.0 |
| 20260504020049 | 14 | 36 | 6.4 | 12.9 | 0.00 | 0.00 | 0.00 | 74 | 1033.1 |
| 20260504015539 | 14 | 240 | 6.4 | 14.5 | 0.00 | 0.00 | 0.00 | 74 | 1033.1 |
| 20260504015039 | 14 | 238 | 4.8 | 14.5 | 0.00 | 0.00 | 0.00 | 75 | 1033.1 |
| 20260504014546 | 14 | 294 | 6.4 | 14.5 | 0.00 | 0.00 | 0.00 | 74 | 1033.1 |
| 20260504014039 | 14 | 274 | 3.2 | 14.5 | 0.00 | 0.00 | 0.00 | 74 | 1033.0 |
| 20260504013538 | 14 | 296 | 3.2 | 16.1 | 0.00 | 0.00 | 0.00 | 74 | 1033.0 |
| 20260504013101 | 14 | 223 | 6.4 | 16.1 | 0.00 | 0.00 | 0.00 | 75 | 1033.1 |
| 20260504012538 | 14 | 232 | 3.2 | 12.9 | 0.00 | 0.00 | 0.00 | 75 | 1033.1 |
| 20260504012039 | 14 | 225 | 6.4 | 12.9 | 0.00 | 0.00 | 0.00 | 74 | 1033.1 |
| 20260504011542 | 14 | 242 | 3.2 | 9.7 | 0.00 | 0.00 | 0.00 | 75 | 1033.1 |
| 20260504011037 | 14 | 275 | 3.2 | 11.3 | 0.00 | 0.00 | 0.00 | 74 | 1033.2 |
| 20260504010538 | 14 | 246 | 4.8 | 11.3 | 0.00 | 0.00 | 0.00 | 73 | 1033.4 |
| 20260504010050 | 14 | 279 | 3.2 | 6.4 | 0.00 | 0.00 | 0.00 | 74 | 1033.5 |
| 20260504005541 | 15 | 268 | 3.2 | 14.5 | 0.00 | 0.00 | 0.00 | 74 | 1033.5 |
| 20260504005039 | 14 | 71 | 3.2 | 14.5 | 0.00 | 0.00 | 0.00 | 74 | 1033.5 |
| 20260504004548 | 14 | 244 | 8.0 | 14.5 | 0.00 | 0.00 | 0.00 | 72 | 1033.6 |
| 20260504004038 | 15 | 271 | 6.4 | 11.3 | 0.00 | 0.00 | 0.00 | 73 | 1033.6 |
| 20260504003538 | 15 | 67 | 1.6 | 11.3 | 0.00 | 0.00 | 0.00 | 75 | 1033.7 |
| 20260504003047 | 14 | 273 | 4.8 | 11.3 | 0.00 | 0.00 | 0.00 | 73 | 1033.6 |
| 20260504002538 | 15 | 51 | 3.2 | 11.3 | 0.00 | 0.00 | 0.00 | 73 | 1033.7 |
| 20260504002038 | 15 | 0 | 1.6 | 4.8 | 0.00 | 0.00 | 0.00 | 74 | 1033.6 |
| 20260504001548 | 15 | 231 | 1.6 | 9.7 | 0.00 | 0.00 | 0.00 | 74 | 1033.8 |
| 20260504001041 | 15 | 242 | 1.6 | 9.7 | 0.00 | 0.00 | 0.00 | 75 | 1033.8 |
| 20260504000538 | 15 | 266 | 0.0 | 9.7 | 0.00 | 0.00 | 0.00 | 75 | 1033.9 |
| 20260504000045 | 14 | 247 | 4.8 | 9.7 | 0.00 | 0.00 | 0.00 | 75 | 1034.0 |
| 20260503235538 | 14 | 249 | 3.2 | 11.3 | 0.00 | 0.00 | 0.00 | 74 | 1034.0 |
| 20260503235039 | 14 | 248 | 4.8 | 11.3 | 0.00 | 0.00 | 0.00 | 74 | 1034.0 |
| 20260503234548 | 15 | 72 | 3.2 | 9.7 | 0.00 | 0.00 | 0.00 | 74 | 1034.0 |
| 20260503234039 | 15 | 321 | 3.2 | 8.0 | 0.00 | 0.00 | 0.00 | 73 | 1034.0 |
| 20260503233539 | 15 | 246 | 1.6 | 8.0 | 0.00 | 0.00 | 0.00 | 74 | 1034.0 |
| 20260503233048 | 15 | 254 | 1.6 | 11.3 | 0.00 | 0.00 | 0.00 | 74 | 1034.1 |
| 20260503232541 | 15 | 57 | 3.2 | 11.3 | 0.00 | 0.00 | 0.00 | 74 | 1034.1 |
| 20260503232038 | 15 | 275 | 3.2 | 11.3 | 0.00 | 0.00 | 0.00 | 73 | 1034.1 |
| 20260503231547 | 15 | 64 | 0.0 | 8.0 | 0.00 | 0.00 | 0.00 | 74 | 1034.2 |
| 20260503231039 | 15 | 40 | 1.6 | 6.4 | 0.00 | 0.00 | 0.00 | 74 | 1034.1 |
| 20260503230542 | 15 | 225 | 0.0 | 9.7 | 0.00 | 0.00 | 0.00 | 74 | 1034.1 |
| 20260503230051 | 15 | 31 | 0.0 | 9.7 | 0.00 | 0.00 | 0.00 | 74 | 1034.2 |
| 20260503225538 | 15 | 260 | 1.6 | 8.0 | 0.00 | 0.00 | 0.00 | 73 | 1034.2 |
| 20260503225038 | 14 | 62 | 3.2 | 11.3 | 0.00 | 0.00 | 0.00 | 73 | 1034.2 |
| 20260503224543 | 14 | 223 | 3.2 | 11.3 | 0.00 | 0.00 | 0.00 | 73 | 1034.1 |
| 20260503224038 | 14 | 294 | 1.6 | 8.0 | 0.00 | 0.00 | 0.00 | 74 | 1034.1 |
| 20260503223538 | 14 | 79 | 3.2 | 9.7 | 0.00 | 0.00 | 0.00 | 74 | 1034.2 |
| 20260503223042 | 14 | 234 | 3.2 | 9.7 | 0.00 | 0.00 | 0.00 | 74 | 1034.1 |
| 20260503222539 | 14 | 343 | 1.6 | 8.0 | 0.00 | 0.00 | 0.00 | 75 | 1034.2 |
| 20260503222037 | 14 | 73 | 1.6 | 4.8 | 0.00 | 0.00 | 0.00 | 76 | 1034.2 |
| 20260503221558 | 14 | 255 | 1.6 | 4.8 | 0.00 | 0.00 | 0.00 | 75 | 1034.2 |
| 20260503221039 | 14 | 175 | 1.6 | 4.8 | 0.00 | 0.00 | 0.00 | 77 | 1034.2 |
| 20260503220539 | 14 | 329 | 1.6 | 11.3 | 0.00 | 0.00 | 0.00 | 76 | 1034.3 |
| 20260503220050 | 13 | 0 | 1.6 | 11.3 | 0.00 | 0.00 | 0.00 | 77 | 1034.2 |
| 20260503215538 | 13 | 37 | 1.6 | 6.4 | 0.00 | 0.00 | 0.00 | 78 | 1034.3 |